Bettles Field, AK

2:03 PM AKST on February 20, 2017 (GMT -0900)
Bettles

Weather History for PABT - November, 2012

Change the Weather History Date:

Friday, November 16, 2012

  Actual Average Record
Temperature  
Mean Temperature -12 °F -  
Max Temperature 0 °F 4 °F 32 °F (1976)
Min Temperature -25 °F -9 °F -42 °F (1956)
Degree Days  
Heating Degree Days 78    
Moisture  
Dew Point -20 °F    
Average Humidity 69    
Maximum Humidity 78    
Minimum Humidity 47    
Precipitation  
Precipitation 0.00 in - - ()
Snow  
Snow 0.00 in - - ()
Snow Depth 1.00 in    
Sea Level Pressure  
Sea Level Pressure 30.36 in    
Wind  
Wind Speed 2 mph (North)    
Max Wind Speed 9 mph    
Max Gust Speed -    
Visibility 10 miles    
Events      
Averages and records for this station are not official NWS values.
T = Trace of Precipitation, MM = Missing Value Source: NWS Daily Summary

Daily Weather History Graph

Daily Weather History Graph

Search for Another Location

Airport or City:

Trip Planner

Search our weather history database for the weather conditions in past years. The results will help you decide how hot, cold, wet, or windy it might be!

Date:

Astronomy

Nov. 16, 2012 Rise Set
Actual Time 10:11 AM AKST 3:29 PM AKST
Civil Twilight 8:57 AM AKST 4:43 PM AKST
Nautical Twilight 7:47 AM AKST 5:53 PM AKST
Astronomical Twilight 6:44 AM AKST 6:56 PM AKST
Moon 1:45 PM AKST (11/16) 6:15 PM AKST (11/16)
Length of Visible Light 7h 46m
Length of Day
5h 17m
Waxing Crescent, 13% of the Moon is Illuminated
Nov 16
Waxing Crescent
Nov 20
First Quarter
Nov 28
Full
Dec 6
Last Quarter
Dec 12
New

Hourly Weather History & Observations

Time (AKST) Temp. Windchill Dew Point Humidity Pressure Visibility Wind Dir Wind Speed Gust Speed Precip Events Conditions
12:53 AM -23.1 °F - -27.9 °F 78% 30.29 in 10.0 mi Calm Calm - N/A   Clear
1:53 AM -23.1 °F - -29.0 °F 74% 30.30 in 10.0 mi Calm Calm - N/A   Clear
3:53 AM -23.1 °F - -29.0 °F 74% 30.32 in 10.0 mi Calm Calm - N/A   Clear
4:53 AM -22.0 °F - -27.9 °F 74% 30.33 in 10.0 mi Calm Calm - N/A   Clear
5:53 AM -24.0 °F - -29.9 °F 74% 30.34 in 10.0 mi Calm Calm - N/A   Clear
6:53 AM -23.1 °F - -27.9 °F 78% 30.35 in 10.0 mi Calm Calm - N/A   Clear
7:53 AM -25.1 °F - -29.9 °F 78% 30.36 in 10.0 mi Calm Calm - N/A   Clear
8:53 AM -24.0 °F - -29.9 °F 74% 30.36 in 10.0 mi Calm Calm - N/A   Clear
9:53 AM -24.0 °F - -29.0 °F 77% 30.38 in 10.0 mi Calm Calm - N/A   Clear
10:53 AM -23.1 °F - -27.9 °F 78% 30.39 in 10.0 mi Calm Calm - N/A   Partly Cloudy
11:53 AM -8.0 °F -21.0 °F -15.0 °F 71% 30.38 in 10.0 mi NNE 5.8 mph - N/A   Clear
12:53 PM -2.0 °F -16.6 °F -9.9 °F 69% 30.38 in 10.0 mi NNE 8.1 mph - N/A   Clear
1:53 PM -2.0 °F -15.4 °F -11.0 °F 66% 30.38 in 10.0 mi NNE 6.9 mph - N/A   Clear
2:53 PM -0.9 °F -11.0 °F -11.0 °F 62% 30.37 in 10.0 mi NW 4.6 mph - N/A   Clear
3:53 PM -0.9 °F -11.0 °F -11.0 °F 62% 30.37 in 10.0 mi North 4.6 mph - N/A   Clear
4:53 PM -6.0 °F -16.9 °F -14.1 °F 68% 30.38 in 10.0 mi WNW 4.6 mph - N/A   Clear
5:53 PM -2.9 °F -16.5 °F -11.9 °F 65% 30.38 in 10.0 mi North 6.9 mph - N/A   Clear
6:53 PM -4.0 °F -20.2 °F -13.0 °F 65% 30.37 in 10.0 mi North 9.2 mph - N/A   Clear
7:53 PM -5.1 °F -19.1 °F -14.1 °F 65% 30.37 in 10.0 mi North 6.9 mph - N/A   Clear
8:53 PM -7.1 °F -18.1 °F -15.0 °F 68% 30.37 in 10.0 mi NNW 4.6 mph - N/A   Clear
9:53 PM -8.0 °F -22.5 °F -15.0 °F 71% 30.36 in 10.0 mi NNW 6.9 mph - N/A   Clear
10:53 PM -9.9 °F -24.9 °F -16.1 °F 74% 30.35 in 10.0 mi North 6.9 mph - N/A   Clear
11:53 PM -11.0 °F -24.6 °F -18.0 °F 71% 30.34 in 10.0 mi NNE 5.8 mph - N/A   Clear